PST,Max TemperatureF,Mean TemperatureF,Min TemperatureF,Max Dew PointF,MeanDew PointF,Min DewpointF,Max Humidity, Mean Humidity, Min Humidity, Max Sea Level PressureIn, Mean Sea Level PressureIn, Min Sea Level PressureIn, Max VisibilityMiles, Mean VisibilityMiles, Min VisibilityMiles, Max Wind SpeedMPH, Mean Wind SpeedMPH, Max Gust SpeedMPH,PrecipitationIn, CloudCover, Events, WindDirDegrees
2013-12-1,44,39,34,40,37,32,92,87,82,30.15,29.85,29.61,10,9,4,31,17,39,0.22,7,Rain,205
2013-12-2,43,35,26,38,24,19,92,72,52,29.98,29.75,29.59,10,10,9,30,15,37,T,6,Snow,249
2013-12-3,28,23,17,15,4,-1,75,54,32,30.29,30.18,29.99,10,10,9,26,14,35,T,4,,45
2013-12-4,25,19,12,8,4,2,76,56,36,30.35,30.32,30.29,10,10,10,10,3,13,0.00,2,,16
2013-12-5,18,13,8,11,8,4,92,80,67,30.33,30.30,30.17,10,9,5,10,5,13,T,6,Snow,121
2013-12-6,17,11,5,5,-3,-12,80,60,40,30.33,30.29,30.25,10,10,10,23,12,29,0.00,3,,44
2013-12-7,15,8,0,-6,-12,-15,75,51,26,30.40,30.31,30.25,10,10,10,18,10,23,0.00,0,,30
2013-12-8,15,7,-2,-1,-4,-7,79,62,44,30.56,30.47,30.28,10,9,2,10,5,13,T,6,Snow,182
2013-12-9,20,15,9,10,5,-2,74,64,53,30.54,30.47,30.37,10,10,9,8,4,12,T,7,Snow,129
2013-12-10,27,19,11,16,10,7,84,70,55,30.49,30.43,30.35,10,10,10,7,2,12,0.00,6,,104
2013-12-11,32,26,20,22,17,12,81,70,58,30.47,30.43,30.35,10,10,7,7,3,8,0.00,8,,49
2013-12-12,32,27,22,28,23,19,92,82,72,30.32,30.21,30.07,10,7,3,15,3,18,T,8,Snow,119
2013-12-13,32,29,25,29,26,23,100,89,78,30.44,30.29,30.11,10,5,0,13,2,15,0.00,8,Fog,190
2013-12-14,38,34,30,36,33,29,100,88,76,30.45,30.37,30.30,10,6,0,14,4,23,0.02,7,Fog-Rain,154
2013-12-15,43,37,30,36,32,28,92,81,70,30.31,30.26,30.21,10,10,10,21,8,25,0.00,7,,168
2013-12-16,41,35,29,36,33,29,100,90,79,30.41,30.36,30.27,10,8,0,15,5,20,0.00,6,Fog,197
2013-12-17,44,35,25,30,28,25,100,77,53,30.32,30.14,29.98,10,6,0,12,4,15,0.00,7,Fog,135
2013-12-18,35,30,24,31,27,15,92,80,68,29.99,29.92,29.84,10,9,6,13,7,18,T,7,Fog,241
2013-12-19,31,25,19,17,13,10,73,61,49,30.22,30.16,29.99,10,10,10,13,6,16,0.00,5,,291
2013-12-20,26,23,20,23,19,12,92,80,68,30.12,29.82,29.59,10,4,0,14,7,18,0.30,8,Fog-Snow,136
2013-12-21,29,24,19,27,23,17,100,92,84,30.13,30.01,29.74,10,3,0,8,2,12,T,8,Fog,109
2013-12-22,33,30,27,32,28,26,100,96,92,30.31,30.24,30.05,2,0,0,6,3,7,0.01,8,Fog-Rain,57
2013-12-23,42,36,30,38,34,25,100,89,78,30.34,30.15,29.97,10,4,0,30,13,39,0.10,6,Fog-Rain,214
2013-12-24,37,29,21,29,26,19,100,85,70,30.58,30.51,30.37,10,8,0,15,6,20,0.00,3,Fog,182
2013-12-25,29,26,22,27,24,21,92,87,81,30.56,30.49,30.38,7,2,0,7,3,8,0.00,7,Fog,51
2013-12-26,35,28,21,30,25,19,100,91,82,30.45,30.37,30.26,10,5,0,6,1,8,0.00,5,Fog,56
2013-12-27,34,28,21,29,24,19,96,86,75,30.32,30.20,30.04,10,4,0,17,4,21,0.00,7,Fog,196
2013-12-28,28,25,22,27,24,21,100,94,88,30.52,30.41,30.19,3,1,0,12,4,13,T,8,Fog-Snow,185
2013-12-29,32,27,22,30,25,21,100,92,84,30.48,30.32,30.17,10,6,0,12,4,17,0.02,6,Fog-Snow,142
2013-12-30,31,28,24,29,26,23,100,93,85,30.32,30.21,30.07,10,5,0,10,3,13,0.01,8,Fog-Rain,90
2013-12-31,33,31,29,30,29,28,100,93,85,30.38,30.20,30.05,10,3,0,12,4,15,0.00,8,,175